Temp
51 50 48 46 46 48 47 45 46 47 48 47 47 47 47 48 48 49 49 49 51 51
49 48 46 45 46 47 44 44 45 45 45 45 45 44 42 42 43 44 46 46 48 48
47 46 45 43 42 42 42 43 42 41 42 42 42 42 41 40 41 40 40 43 45 46
44 44 43 42 41 39 39 39 39 39 38 37 37 38 35 36 37 38 39 39 40 43
43 42 42 41 41 43 40 40 38 39 37 36 35 35 35 34 36 35 37 37 37 38
41 41 41 42 42 39 37 37 37 37 36 36 37 37 35 34 36 35 37 37 34 36
40 41 42 42 39 37 37 37 37 36 36 35 35 36 36 36 35 35 36 36 35 35
40 42 41 38 37 36 37 36 36 35 35 35 34 34 33 34 34 34 34 35 36 37
40 40 39 36 36 35 36 35 35 35 35 34 33 35 35 34 33 33 34 33 35 38
41 39 37 36 35 35 34 34 34 34 35 34 33 35 35 35 33 33 33 34 35 35
40 38 36 35 34 34 33 33 33 35 34 34 33 35 34 34 34 35 35 35 33 35
40 37 35 34 33 35 34 33 34 35 34 33 33 34 34 34 35 35 34 36 35 35
41 39 35 33 33 34 35 35 38 36 35 34 34 34 34 35 36 34 33 35 36 33
42 39 38 36 35 34 35 38 38 36 35 33 34 35 35 35 37 36 35 34 34 34
MSLP
1020.22 1019.92 1019.80 1019.77 1019.62 1019.22 1019.09 1019.09 1019.04 1018.86 1018.67 1018.57 1018.49 1018.45 1018.42 1018.40 1018.31 1018.34 1018.32 1018.34 1018.78 1018.92
1020.06 1019.97 1019.76 1019.55 1019.31 1019.01 1019.00 1018.68 1018.54 1018.44 1018.23 1018.10 1018.14 1018.26 1018.51 1018.51 1018.42 1018.29 1018.45 1018.51 1018.54 1018.82
1020.10 1019.98 1019.71 1019.42 1019.15 1018.93 1018.67 1018.37 1018.20 1018.14 1017.95 1017.77 1017.68 1017.68 1017.96 1018.14 1018.20 1018.27 1018.43 1018.54 1018.48 1018.54
1020.14 1019.98 1019.62 1019.16 1018.88 1018.66 1018.44 1018.20 1017.95 1017.76 1017.62 1017.50 1017.36 1017.33 1017.52 1017.77 1017.94 1018.06 1018.08 1018.24 1018.45 1018.36
1020.12 1019.69 1019.24 1018.85 1018.41 1017.97 1017.81 1017.62 1017.51 1017.26 1017.20 1017.12 1017.08 1016.97 1016.83 1017.14 1017.32 1017.60 1017.64 1017.82 1018.13 1018.27
1019.87 1019.41 1018.95 1018.40 1017.98 1017.81 1017.74 1017.58 1017.31 1017.08 1016.87 1016.68 1016.47 1016.36 1016.45 1016.52 1016.70 1017.07 1017.09 1017.36 1017.90 1018.14
1019.80 1019.26 1018.68 1018.30 1017.99 1017.68 1017.59 1017.28 1017.02 1016.81 1016.56 1016.37 1016.13 1015.90 1015.80 1015.94 1016.16 1016.35 1016.64 1016.94 1017.33 1017.79
1019.79 1019.08 1018.58 1018.25 1018.04 1017.81 1017.44 1017.11 1016.79 1016.48 1016.13 1015.84 1015.58 1015.35 1015.29 1015.38 1015.46 1015.63 1016.05 1016.39 1016.78 1017.13
1019.71 1019.11 1018.72 1018.33 1017.90 1017.64 1017.26 1016.82 1016.42 1016.08 1015.73 1015.35 1014.97 1014.66 1014.54 1014.67 1014.85 1015.16 1015.49 1015.85 1016.28 1016.56
1019.64 1019.23 1018.97 1018.51 1018.03 1017.66 1017.32 1016.88 1016.34 1015.84 1015.48 1015.00 1014.49 1013.81 1013.49 1013.81 1014.33 1014.71 1015.03 1015.44 1015.78 1016.11
1019.75 1019.44 1019.18 1018.81 1018.34 1017.88 1017.45 1016.96 1016.42 1015.84 1015.45 1014.90 1014.31 1013.68 1013.54 1013.75 1014.14 1014.56 1014.90 1015.26 1015.51 1015.55
1019.91 1019.54 1019.26 1018.84 1018.47 1017.91 1017.41 1016.94 1016.38 1015.99 1015.58 1015.06 1014.66 1014.34 1014.19 1014.23 1014.43 1014.68 1014.95 1015.14 1015.35 1015.26
1020.09 1019.57 1019.22 1018.97 1018.59 1018.14 1017.56 1016.96 1016.38 1016.09 1015.77 1015.45 1015.03 1014.94 1014.85 1014.77 1014.76 1014.93 1015.11 1015.31 1015.36 1015.35
1020.19 1019.80 1019.39 1018.95 1018.59 1018.17 1017.60 1016.93 1016.50 1016.22 1016.00 1015.70 1015.52 1015.39 1015.33 1015.30 1015.06 1015.02 1015.17 1015.30 1015.48 1015.41
Wind_Speed
12 7 7 6 7 7 6 7 8 8 8 9 9 7 6 6 6 7 8 12 12 9
9 10 8 9 9 8 9 6 8 9 10 9 9 9 10 8 9 6 7 7 10 9
11 10 10 9 11 11 9 10 9 9 10 10 9 9 10 8 9 10 7 7 9 8
10 12 12 11 9 7 9 9 9 8 8 7 8 10 7 9 10 11 11 10 10 11
10 10 12 11 12 11 11 9 8 8 4 5 5 5 8 9 9 11 12 11 11 11
11 12 13 13 13 9 6 6 5 7 7 8 9 9 7 8 9 11 12 11 8 10
12 14 13 13 11 8 7 8 7 6 8 8 9 9 9 9 9 11 10 10 10 11
12 15 13 9 9 7 8 7 7 7 7 8 8 7 8 9 9 10 11 10 11 11
13 14 14 10 7 8 10 10 7 6 7 8 6 11 16 12 8 10 10 9 10 9
14 14 12 11 8 9 10 8 8 7 7 8 8 12 10 14 7 7 8 8 8 9
14 13 11 11 10 9 8 6 7 8 6 7 7 6 3 9 7 5 7 7 7 6
12 12 10 10 9 10 8 8 8 6 8 7 6 9 8 6 5 6 5 5 5 3
11 13 9 7 8 8 7 8 7 7 6 8 6 7 8 5 5 6 3 4 3 2
11 11 11 8 5 6 7 7 8 8 8 6 8 6 8 6 4 5 4 3 3 1
Wind_Direction
319 306 304 298 292 286 280 277 274 272 272 272 268 266 269 261 244 236 237 233 234 225
327 325 318 314 301 299 294 272 268 269 268 260 254 258 257 257 254 258 243 239 226 228
336 331 320 314 307 302 295 292 290 286 281 272 259 246 240 241 247 244 238 242 236 222
335 335 325 313 305 297 294 291 282 276 274 266 255 241 219 223 234 243 239 227 230 234
326 319 321 311 301 305 294 282 292 291 294 288 280 263 229 215 227 223 227 225 226 225
326 325 321 324 330 312 325 301 284 278 283 276 275 267 240 228 215 224 226 209 203 226
330 329 327 327 322 301 300 297 291 287 282 281 275 267 258 234 217 221 219 198 190 218
329 333 336 321 336 316 311 305 294 283 281 276 264 256 243 235 229 204 211 200 201 208
337 345 348 332 331 324 330 321 303 286 291 288 278 266 251 231 214 214 203 189 196 215
352 351 358 347 347 344 342 334 344 329 313 315 306 303 259 212 196 187 187 180 196 215
356 355 354 349 353 347 340 334 335 345 340 335 336 7 108 146 144 156 169 179 194 222
357 357 349 350 345 357 350 343 342 351 356 356 5 41 95 103 122 130 147 179 198 216
355 359 341 342 347 347 349 348 1 3 356 11 15 59 80 86 109 119 138 153 168 289
352 350 351 357 349 353 347 3 13 22 19 15 23 68 86 85 104 136 110 103 125 88